Tracking 23762 objects as of 20-Oct-2021
HD Live streaming from Space Station
objects crossing your sky now

OPS 6582 (TRANSIT 5B-5)

Track OPS 6582 (TRANSIT 5B-5) now!
10-day predictions
OPS 6582 (TRANSIT 5B-5) is classified as:


NORAD ID: 965
Int'l Code: 1964-083D
Perigee: 1,025.1 km
Apogee: 1,084.1 km
Inclination: 90.0 °
Period: 106.1 minutes
Semi major axis: 7425 km
RCS: 1.0908 m2 (large)
Launch date: December 13, 1964
Source: United States (US)
Launch site: AIR FORCE WESTERN TEST RANGE (AFWTR)
aabbcc
Your satellite tracking list
Your tracking list is empty




NASA's NSSDC Master Catalog

Two Line Element Set (TLE):
1 00965U 64083D   21292.77165060  .00000046  00000-0  51111-4 0  9992
2 00965  90.0279 194.7494 0039708 210.4352 207.9273 13.56761929812887
Source of the keplerian elements: AFSPC